Weather History for Bozeman, MT

Change the Weather History Date:

Monday, July 1, 2013

  Actual Average Record
Temperature  
Mean Temperature 75 °F 66 °F  
Max Temperature 91 °F 83 °F 98 °F (1990)
Min Temperature 59 °F 49 °F 34 °F (1970)
Degree Days  
Heating Degree Days 0    
Month to date heating degree days 0  
Since 1 June heating degree days 167  
Since 1 July heating degree days 0  
Cooling Degree Days 10    
Month to date cooling degree days 10  
Year to date cooling degree days 39  
Since 1 June cooling degree days 37  
Growing Degree Days 24 (Base 50)    
Moisture  
Dew Point 56 °F    
Average Humidity 56    
Maximum Humidity 84    
Minimum Humidity 27    
Precipitation  
Precipitation 0.00 in 0.05 in 0.57 in (1997)
Month to date precipitation 0.00 0.05  
Year to date precipitation 7.00 8.35  
Snow  
Snow 0.00 in 0.00 in T in (1954)
Month to date snowfall 0.0  
Since 1 June snowfall 0.0 0.0  
Since 1 July snowfall 0.0  
Snow Depth 0.00 in    
Sea Level Pressure  
Sea Level Pressure 30.09 in    
Wind  
Wind Speed 6 mph (SSE)    
Max Wind Speed 16 mph    
Max Gust Speed -    
Visibility 10 miles    
Events      
T = Trace of Precipitation, MM = Missing Value Source: NWS Daily Summary

Daily Weather History Graph

Daily Weather History Graph

Search for Another Location

Airport:

Trip Planner

Search our weather history database for the weather conditions in past years. The results will help you decide how hot, cold, wet, or windy it might be!

Date:

Astronomy

Jul. 01, 2013 Rise Set
Actual Time 5:38 AM MDT 9:18 PM MDT
Civil Twilight 5:00 AM MDT 9:56 PM MDT
Nautical Twilight 4:09 AM MDT 10:46 PM MDT
Astronomical Twilight 3:00 AM MDT 11:55 PM MDT
Moon 1:22 AM MDT (7/1) 3:26 PM MDT (7/1)
Length of Visible Light 16h 55m
Length of Day
15h 39m
Waning Crescent, 35% of the Moon is Illuminated
Jul 1
Waning Crescent
Jul 8
New
Jul 15
First Quarter
Jul 22
Full
Jul 29
Last Quarter

Hourly Weather History & Observations

Time (MDT) Temp. Heat Index Dew Point Humidity Pressure Visibility Wind Dir Wind Speed Gust Speed Precip Events Conditions
12:56 AM 68.0 °F - 55.9 °F 65% 30.08 in 10.0 mi NW 5.8 mph - N/A   Clear
1:56 AM 66.0 °F - 55.9 °F 70% 30.09 in 10.0 mi WNW 4.6 mph - N/A   Clear
2:56 AM 62.1 °F - 55.9 °F 80% 30.10 in 10.0 mi NW 6.9 mph - N/A   Clear
3:56 AM 60.1 °F - 55.0 °F 83% 30.10 in 10.0 mi Calm Calm - N/A   Clear
4:56 AM 63.0 °F - 55.0 °F 75% 30.12 in 10.0 mi Calm Calm - N/A   Clear
5:56 AM 59.0 °F - 54.0 °F 83% 30.14 in 10.0 mi SSW 5.8 mph - N/A   Clear
6:56 AM 63.0 °F - 55.0 °F 75% 30.14 in 10.0 mi SSW 4.6 mph - N/A   Clear
7:56 AM 68.0 °F - 57.0 °F 68% 30.14 in 10.0 mi Calm Calm - N/A   Clear
8:56 AM 70.0 °F - 57.0 °F 63% 30.15 in 10.0 mi North - - N/A   Clear
9:56 AM 75.0 °F - 57.9 °F 55% 30.14 in 10.0 mi Calm Calm - N/A   Clear
10:56 AM 78.1 °F - 59.0 °F 52% 30.13 in 10.0 mi Calm Calm - N/A   Clear
11:56 AM 81.0 °F 81.3 °F 59.0 °F 47% 30.13 in 10.0 mi Variable 5.8 mph - N/A   Clear
12:56 PM 84.0 °F 83.3 °F 57.0 °F 40% 30.10 in 10.0 mi Variable 3.5 mph - N/A   Clear
1:56 PM 87.1 °F 86.7 °F 60.1 °F 40% 30.09 in 10.0 mi Variable 5.8 mph - N/A   Clear
2:56 PM 89.1 °F 86.7 °F 53.1 °F 29% 30.08 in 10.0 mi Variable 4.6 mph - N/A   Clear
3:56 PM 89.1 °F 86.9 °F 54.0 °F 30% 30.07 in 10.0 mi SSE 6.9 mph - N/A   Clear
4:56 PM 89.1 °F - 52.0 °F 28% 30.06 in 10.0 mi ESE 4.6 mph - N/A   Clear
5:56 PM 88.0 °F 86.1 °F 55.0 °F 32% 30.05 in 10.0 mi SSE 12.7 mph - N/A   Clear
6:56 PM 86.0 °F 84.5 °F 55.0 °F 35% 30.04 in 10.0 mi SE 13.8 mph - N/A   Clear
7:56 PM 82.9 °F 81.9 °F 54.0 °F 37% 30.04 in 10.0 mi SE 16.1 mph - N/A   Clear
8:56 PM 77.0 °F - 55.0 °F 47% 30.05 in 10.0 mi SE 10.4 mph - N/A   Clear
9:56 PM 72.0 °F - 55.0 °F 55% 30.06 in 10.0 mi ESE 5.8 mph - N/A   Clear
10:56 PM 70.0 °F - 54.0 °F 57% 30.07 in 10.0 mi East 5.8 mph - N/A   Clear
11:56 PM 71.1 °F - 52.0 °F 51% 30.07 in 10.0 mi SSE 6.9 mph - N/A   Clear